Home   Weather   Dijon   Past weeks

Flag for France Past Weather in Dijon, Burgundy, France — Yesterday and Last 2 Weeks

Now
27 °F

Ice fog.


Feels Like: 27 °F
Forecast: 27 / 46 °F
Wind: 1 mph from North

Location: Dijon Airport

Current Time: Dec 9, 2016 at 5:04:28 am

Latest Report: Dec 9, 2016 at 4:30 am


Visibility: 0 mi

Pressure: 30.51 "Hg

Humidity: 100%

Dew Point: 27 °F

Location of DijonLocation

Past Weather in Dijon — Graph

°F

Dijon Temperature Yesterday

Maximum temperature yesterday: 34 °F (at 3:00 pm)
Minimum temperature yesterday: 27 °F (at 12:00 am)
Average temperature yesterday: 29 °F

High & Low Weather Summary for the Past Weeks

 TemperatureHumidityPressure
High54 °F (Nov 26, 12:30 pm)100% (Nov 24, 9:00 am)30.57 "Hg (Nov 24, 9:00 am)
Low21 °F (Dec 7, 8:00 am)1% (Nov 27, 8:00 am)29.80 "Hg (Nov 25, 3:30 am)
Average36 °F79%30.24 "Hg
* Reported Nov 24 4:00 am — Dec 9 4:00 am, Dijon, Weather by CustomWeather, © 2016

Note: Actual official high and low records may vary slightly from our data, if they occured in-between our weather recording intervals... More about our weather records

Advertising

Dijon Weather History for the Previous 24 Hours

Scroll right to see more
 ConditionsComfort  
Time TempWeatherWind HumidityBarometerVisibility
4:00 am
Fri, Dec 9
27 °FIce fog.1 mph100%30.54 "Hg0 mi
3:30 am27 °FIce fog.No wind100%30.54 "Hg1 mi
3:00 am27 °FIce fog.2 mph100%30.54 "Hg1 mi
2:30 am27 °FIce fog.No wind100%30.54 "Hg1 mi
2:00 am28 °FIce fog.2 mph93%30.54 "Hg0 mi
1:30 am28 °FIce fog.1 mph93%30.54 "Hg1 mi
1:00 am28 °FIce fog.2 mph93%30.54 "Hg0 mi
12:30 am28 °FIce fog.1 mph100%30.54 "Hg0 mi
12:00 am28 °FIce fog.2 mph100%30.54 "Hg0 mi
11:30 pm
Thu, Dec 8
28 °FIce fog.No wind100%30.54 "Hg0 mi
11:00 pm28 °FIce fog.No wind100%30.54 "Hg0 mi
10:30 pm30 °FIce fog.1 mph93%30.54 "Hg0 mi
10:00 pm30 °FIce fog.No wind100%30.54 "Hg0 mi
9:30 pm30 °FIce fog.1 mph100%30.54 "Hg1 mi
9:00 pm30 °FIce fog.1 mph100%30.54 "Hg0 mi
8:30 pm30 °FIce fog.1 mph100%30.54 "Hg0 mi
8:00 pm32 °FIce fog.1 mph93%30.54 "Hg0 mi
7:30 pm30 °FIce fog.5 mph100%30.51 "Hg0 mi
7:00 pm32 °FIce fog.2 mph93%30.51 "Hg0 mi
6:30 pm32 °FIce fog.1 mph93%30.51 "Hg0 mi
6:00 pm32 °FFog.1 mph100%30.51 "Hg0 mi
5:30 pm32 °FFog.No wind100%30.51 "Hg1 mi
5:00 pm32 °FIce fog.2 mph100%30.51 "Hg1 mi
4:30 pm32 °FIce fog.3 mph100%30.51 "Hg1 mi
4:00 pm34 °FFog.2 mph93%30.51 "Hg2 mi
3:30 pm34 °FFog.3 mph93%30.51 "Hg2 mi
3:00 pm34 °FFog.2 mph93%30.51 "Hg2 mi
2:30 pm32 °FIce fog.1 mph100%30.51 "Hg1 mi
2:00 pm32 °FIce fog.2 mph100%30.51 "Hg1 mi
1:30 pm32 °FLow clouds.1 mph100%30.54 "Hg1 mi
1:00 pm32 °FIce fog.2 mph93%30.54 "Hg1 mi
12:30 pm32 °FIce fog.2 mph93%30.54 "Hg0 mi
12:00 pm30 °FIce fog.2 mph100%30.57 "Hg0 mi
11:30 am30 °FIce fog.No wind93%30.57 "Hg0 mi
11:00 am28 °FIce fog.No wind100%30.57 "Hg0 mi
10:30 am28 °FIce fog.2 mph100%30.57 "Hg0 mi
10:00 am28 °FIce fog.2 mph100%30.57 "Hg0 mi
9:30 am28 °FIce fog.3 mph100%30.57 "Hg1 mi
9:00 am28 °FIce fog.3 mph93%30.57 "Hg1 mi
8:30 am28 °FIce fog.3 mph93%30.57 "Hg1 mi
8:00 am28 °FIce fog.3 mph93%30.57 "Hg1 mi
7:30 am28 °FIce fog.3 mph93%30.57 "Hg1 mi
7:00 am27 °FIce fog.3 mph100%30.57 "Hg1 mi
6:30 am27 °FIce fog.3 mph100%30.57 "Hg1 mi
6:00 am27 °FIce fog.3 mph100%30.57 "Hg1 mi
5:30 am27 °FIce fog.5 mph100%30.57 "Hg1 mi
5:00 am27 °FIce fog.3 mph100%30.57 "Hg1 mi
Weather by CustomWeather, © 2016

See weather overviewHow to use our weather pages